[[{"header":{"parameterUnit":"m.s-1","parameterCategory":1,"la1":30.2991,"la2":30.254,"lo1":-89.0895,"lo2":-89.0444,"dy":0.0017,"dx":0.0017,"nx":28,"ny":28,"refTime":"2025-09-17T21:00:00:Z","depth":0,"parameterNumber":2,"parameterNumberName":"U-component_of_WINDS"},"data":[0,0,0,0,0,0,0,0,0,0,0,0,0,0,0,0,0,0,0,0,0,0,0,0,0,0,0,0,0,0,0,0,0,0,0,0,0,0,0,0,0,0,0,0,0,0,0,0,0,0,0,0,0,0,0,0,0,0,1.3364,1.3365,0,1.3404,1.3404,1.3405,1.3429,1.3429,1.3429,1.3429,1.3467,1.3468,1.3469,0,0,0,0,0,0,0,0,0,0,0,0,0,1.3306,1.3307,1.3364,1.3365,1.3365,1.3404,1.3404,1.3405,1.3429,1.3429,1.3429,1.3429,1.3467,1.3468,1.3469,0,0,0,0,0,0,0,0,0,0,0,0,0,1.3337,1.3307,1.3364,1.3382,1.3384,1.3404,1.3404,1.3405,1.3429,1.3429,1.3429,1.3429,1.3466,1.3468,1.3469,1.3473,0,0,1.3473,1.3474,0,0,0,0,0,0,0,0,1.3335,1.3339,1.3379,1.3381,1.3383,1.3412,1.3398,1.3428,1.3429,1.3412,1.3429,1.343,1.3448,1.3451,1.3458,1.3475,1.3477,1.3473,1.3474,1.3475,1.3475,0,0,0,0,0,0,0,1.3333,1.3337,1.338,1.3379,1.3382,1.3387,1.3391,1.3403,1.3428,1.3413,1.3415,1.342,1.3449,1.3457,1.3459,1.3477,1.3473,1.3474,1.3475,1.3476,1.3498,1.3498,0,0,0,0,0,0,1.3328,1.3335,1.3379,1.3381,1.3359,1.3388,1.3393,1.3402,1.3428,1.3433,1.3419,1.3421,1.3454,1.3458,1.3461,1.3467,1.3475,1.3476,1.3477,1.3498,1.3498,1.3498,0,0,0,0,0,0,1.3327,1.3332,1.3377,1.3359,1.3365,1.3388,1.3399,1.3403,1.341,1.3433,1.3437,1.3423,1.3455,1.3459,1.347,1.3468,1.3476,1.3478,1.3499,1.3498,1.3498,1.3479,0,0,0,0,0,0,1.3325,1.3331,1.3334,1.3359,1.3366,1.3387,1.3399,1.3404,1.3413,1.3415,1.3437,1.3441,1.3455,1.3468,1.3471,1.347,1.3479,1.3499,1.3499,1.3498,1.348,1.3478,1.3477,0,0,0,0,0,1.3323,1.3327,1.3334,1.3339,1.337,1.3387,1.3391,1.3408,1.3413,1.3415,1.3429,1.344,1.3468,1.3469,1.3473,1.3472,1.3499,1.3499,1.3498,1.3481,1.3478,1.3477,0,0,0,0,0,0,1.3301,1.3331,1.3339,1.3351,1.3366,1.3391,1.3395,1.3405,1.3419,1.342,1.3439,1.3444,1.3453,1.3464,1.3464,1.3477,1.3485,1.3485,1.347,1.3468,1.3466,1.3463,1.348,0,0,0,0,0,1.3298,1.331,1.3335,1.3343,1.335,1.3371,1.3379,1.3391,1.3407,1.3413,1.3428,1.3443,1.3454,1.3462,1.3474,1.3481,1.3486,1.3483,1.3481,1.348,1.348,1.3483,1.3481,1.3497,1.3497,1.3497,0,0,1.3291,1.3309,1.3315,1.3339,1.3352,1.3363,1.3376,1.3388,1.3395,1.3415,1.3426,1.3437,1.3455,1.3464,1.3468,1.3473,1.3476,1.3479,1.3478,1.3479,1.3482,1.3481,1.348,1.3496,1.3496,1.3496,0,0,1.3285,1.33,1.3308,1.3321,1.334,1.3354,1.3355,1.3378,1.3386,1.3398,1.3413,1.3421,1.3442,1.3453,1.3461,1.3457,1.3467,1.346,1.3451,1.3454,1.3453,1.3452,1.345,1.3449,1.346,1.346,1.346,0,1.3274,1.3292,1.3311,1.3321,1.333,1.3348,1.3356,1.3367,1.3389,1.3394,1.3399,1.3424,1.3437,1.3448,1.3447,1.3453,1.3455,1.3458,1.3452,1.3451,1.3451,1.3448,1.3447,1.3459,1.3459,1.3459,1.3459,0,1.3277,1.3289,1.3293,1.3314,1.3324,1.3333,1.3351,1.3359,1.3369,1.3381,1.3392,1.3408,1.3423,1.3427,1.3437,1.3439,1.3441,1.3449,1.3457,1.3448,1.3446,1.3445,1.3458,1.3458,1.3458,1.3459,0,0,1.3259,1.329,1.3291,1.33,1.3322,1.3331,1.334,1.3355,1.336,1.3374,1.3381,1.3397,1.3404,1.3413,1.3425,1.3428,1.3421,1.3435,1.3435,1.3431,1.3423,1.3417,1.3416,1.3428,1.3428,1.3428,1.3421,0,1.3256,1.3273,1.3289,1.33,1.3311,1.3327,1.3334,1.3347,1.3359,1.3368,1.338,1.3391,1.34,1.3405,1.3409,1.3422,1.342,1.3422,1.3434,1.3434,1.3428,1.3415,1.3409,1.3402,1.3421,1.3421,1.3421,0,1.3254,1.3268,1.328,1.3299,1.3304,1.3311,1.3325,1.3334,1.3349,1.3357,1.3367,1.3378,1.3387,1.3394,1.3404,1.3406,1.3411,1.3418,1.3418,1.3419,1.3427,1.3415,1.34,1.3399,1.342,1.342,1.342,0,1.3239,1.326,1.327,1.3277,1.3301,1.3304,1.3314,1.3329,1.3337,1.3349,1.3353,1.3366,1.3373,1.3382,1.3396,1.34,1.3405,1.3413,1.3411,1.341,1.3411,1.3411,1.3396,1.3415,1.3415,1.3415,1.3415,0,1.3233,1.324,1.3263,1.3269,1.3276,1.3294,1.33,1.3311,1.3324,1.3331,1.3345,1.3352,1.337,1.3378,1.3389,1.3396,1.3399,1.3405,1.3407,1.3403,1.3402,1.3407,1.3407,1.3415,1.3415,1.3415,1.3415,0,1.3218,1.3234,1.3245,1.3266,1.3271,1.3275,1.3292,1.3298,1.3309,1.3318,1.3321,1.3339,1.3349,1.3364,1.3379,1.3386,1.339,1.3395,1.3386,1.3387,1.3383,1.3383,1.337,1.3369,1.339,1.3389,1.3389,0,1.3213,1.3219,1.3239,1.3245,1.3255,1.3264,1.3272,1.3288,1.3295,1.3312,1.3315,1.3326,1.3336,1.3351,1.3364,1.3375,1.338,1.3375,1.3382,1.3377,1.3379,1.3378,1.3378,1.3373,1.3373,1.3372,1.3372,0,1.3203,1.321,1.3221,1.3233,1.3242,1.3253,1.3265,1.3268,1.3287,1.3294,1.3304,1.3312,1.3326,1.3337,1.3349,1.3358,1.3367,1.337,1.337,1.3365,1.3359,1.3361,1.3381,1.337,1.337,1.337,1.3371,1.3371,1.3192,1.3197,1.3212,1.3223,1.3233,1.3243,1.3249,1.326,1.327,1.3283,1.3292,1.3301,1.3314,1.3332,1.334,1.3347,1.3351,1.3351,1.3351,1.335,1.3348,1.3358,1.3349,1.3349,1.3349,1.3349,1.3349,0,1.3182,1.3192,1.3201,1.3217,1.3225,1.3234,1.3246,1.3252,1.326,1.3272,1.3281,1.3292,1.3301,1.3315,1.3326,1.3328,1.3333,1.333,1.333,1.3332,1.3344,1.3343,1.3326,1.3326,1.3326,1.3326,1.3326,1.3326,1.3177,1.3186,1.3194,1.3207,1.3216,1.3226,1.3232,1.3241,1.325,1.3261,1.327,1.3279,1.329,1.3301,1.331,1.3314,1.3316,1.3312,1.3317,1.3329,1.3331,1.3333,1.3332,1.3313,1.3313,1.3304,1.3304,1.3304]},{"header":{"parameterUnit":"m.s-1","parameterCategory":1,"la1":30.2991,"la2":30.254,"lo1":-89.0895,"lo2":-89.0444,"dy":0.0017,"dx":0.0017,"nx":28,"ny":28,"refTime":"2025-09-17T21:00:00:Z","depth":0,"parameterNumber":3,"parameterNumberName":"V-component_of_WINDS"},"data":[0,0,0,0,0,0,0,0,0,0,0,0,0,0,0,0,0,0,0,0,0,0,0,0,0,0,0,0,0,0,0,0,0,0,0,0,0,0,0,0,0,0,0,0,0,0,0,0,0,0,0,0,0,0,0,0,0,0,0.906,0.9061,0,0.9083,0.9084,0.9084,0.9055,0.9054,0.9053,0.9052,0.9077,0.9078,0.908,0,0,0,0,0,0,0,0,0,0,0,0,0,0.8991,0.8992,0.906,0.9061,0.9061,0.9083,0.9084,0.9084,0.9055,0.9054,0.9053,0.9052,0.9076,0.9078,0.908,0,0,0,0,0,0,0,0,0,0,0,0,0,0.9018,0.8993,0.906,0.9049,0.9048,0.9083,0.9084,0.9084,0.9056,0.9054,0.9053,0.9051,0.9076,0.9078,0.9081,0.9127,0,0,0.9088,0.9089,0,0,0,0,0,0,0,0,0.9017,0.9021,0.9051,0.905,0.9049,0.9065,0.9068,0.9099,0.9056,0.9053,0.9052,0.905,0.9074,0.9077,0.9085,0.9129,0.913,0.9088,0.909,0.9091,0.9092,0,0,0,0,0,0,0,0.9015,0.902,0.9069,0.9051,0.905,0.9043,0.9045,0.9074,0.9072,0.9053,0.9051,0.9054,0.9074,0.9082,0.9085,0.913,0.9088,0.909,0.9092,0.9093,0.9211,0.9213,0,0,0,0,0,0,0.9014,0.9018,0.9069,0.907,0.9029,0.9045,0.9048,0.9061,0.9072,0.9072,0.9056,0.9053,0.9079,0.9082,0.9086,0.914,0.9091,0.9093,0.9095,0.9209,0.9211,0.9213,0,0,0,0,0,0,0.9013,0.9019,0.9068,0.9044,0.9049,0.9048,0.9064,0.9063,0.9071,0.9074,0.9073,0.9065,0.9078,0.9082,0.9117,0.914,0.9094,0.9096,0.9207,0.921,0.9212,0.9249,0,0,0,0,0,0,0.9011,0.9019,0.9037,0.9044,0.9051,0.9099,0.9065,0.9064,0.9076,0.9072,0.9082,0.9082,0.9077,0.9113,0.9119,0.9143,0.9098,0.9205,0.9208,0.9211,0.9246,0.9253,0.9258,0,0,0,0,0,0.9008,0.9047,0.9038,0.9044,0.9073,0.91,0.9104,0.9096,0.9078,0.9096,0.9096,0.9082,0.9137,0.9117,0.9123,0.9148,0.9204,0.9208,0.9211,0.9243,0.9251,0.9258,0,0,0,0,0,0,0.9044,0.9048,0.9038,0.908,0.909,0.9095,0.9118,0.9106,0.9122,0.9118,0.9108,0.9111,0.9147,0.9151,0.9129,0.9193,0.9167,0.9172,0.9189,0.9197,0.9203,0.9201,0.91,0,0,0,0,0,0.9056,0.9078,0.908,0.9117,0.9122,0.9119,0.9131,0.9124,0.9134,0.9138,0.9142,0.9152,0.9171,0.9184,0.9202,0.9246,0.9247,0.9266,0.9272,0.9277,0.9282,0.9303,0.9311,0.9225,0.9225,0.9225,0,0,0.9083,0.9088,0.9102,0.9124,0.9131,0.9153,0.9123,0.9148,0.9164,0.9142,0.9174,0.9177,0.9188,0.9226,0.9244,0.9231,0.9306,0.9282,0.9286,0.9288,0.9308,0.9316,0.9323,0.9228,0.9227,0.9227,0,0,0.9142,0.9148,0.9179,0.9186,0.9195,0.9193,0.92,0.9207,0.9207,0.9239,0.9222,0.9241,0.9275,0.9283,0.9291,0.935,0.9336,0.9356,0.9389,0.941,0.9417,0.9422,0.9442,0.945,0.936,0.9361,0.9361,0,0.9174,0.9206,0.9196,0.9221,0.9231,0.9211,0.9241,0.9248,0.9264,0.9271,0.9256,0.9296,0.9302,0.9341,0.9355,0.9363,0.937,0.9355,0.9416,0.9422,0.9428,0.9446,0.9454,0.9363,0.9363,0.9362,0.9362,0,0.9244,0.9266,0.929,0.9304,0.9316,0.9344,0.9337,0.9351,0.9342,0.934,0.9372,0.9378,0.9396,0.9404,0.9397,0.9442,0.9434,0.9418,0.9392,0.9438,0.9456,0.9463,0.9366,0.9365,0.9365,0.9364,0,0,0.9328,0.9334,0.9343,0.9348,0.9356,0.9373,0.9399,0.9415,0.9426,0.9437,0.9458,0.9486,0.947,0.948,0.9473,0.9491,0.9535,0.9473,0.9473,0.9483,0.9584,0.9595,0.9604,0.9526,0.9528,0.9529,0.9582,0,0.9386,0.9431,0.9421,0.9464,0.9484,0.9463,0.9486,0.9493,0.9492,0.9508,0.9506,0.9525,0.9504,0.951,0.9527,0.9526,0.9555,0.9522,0.9545,0.9546,0.9543,0.9613,0.9626,0.9676,0.9589,0.959,0.9591,0,0.9461,0.9473,0.9517,0.952,0.9528,0.9548,0.9561,0.9577,0.9584,0.9581,0.9591,0.9579,0.9604,0.9577,0.961,0.9588,0.9597,0.9598,0.9599,0.9601,0.9571,0.9616,0.9692,0.9699,0.9602,0.9601,0.96,0,0.9516,0.9543,0.9573,0.9578,0.9582,0.9597,0.9599,0.9604,0.9614,0.9625,0.9631,0.9646,0.9654,0.9665,0.9657,0.9638,0.9691,0.9664,0.9689,0.9689,0.9701,0.9701,0.9779,0.9708,0.9708,0.9708,0.9707,0,0.9582,0.961,0.9597,0.9616,0.9646,0.9634,0.9664,0.9664,0.9669,0.9686,0.967,0.9686,0.9675,0.9691,0.9685,0.9713,0.9717,0.9715,0.9713,0.9716,0.9717,0.9722,0.9718,0.971,0.9709,0.9709,0.9708,0,0.9649,0.9642,0.9673,0.9673,0.9674,0.9696,0.9696,0.9713,0.9709,0.9731,0.9736,0.9731,0.9748,0.9741,0.976,0.9756,0.9791,0.9785,0.9788,0.9786,0.9811,0.9809,0.9896,0.9906,0.9829,0.9829,0.983,0,0.9691,0.9712,0.9714,0.9724,0.9727,0.9744,0.9752,0.9741,0.9751,0.9759,0.9774,0.979,0.9802,0.983,0.9828,0.9842,0.9835,0.9865,0.9838,0.9839,0.9835,0.9833,0.9835,0.9871,0.9871,0.9872,0.9873,0,0.9767,0.9761,0.9775,0.9786,0.9797,0.9806,0.9813,0.9823,0.9811,0.9823,0.984,0.9849,0.9867,0.9882,0.9894,0.9896,0.9882,0.9881,0.9888,0.9891,0.9892,0.989,0.9802,0.9879,0.9879,0.9878,0.9878,0.9878,0.9822,0.9838,0.9841,0.9856,0.986,0.9867,0.9882,0.9879,0.9892,0.9906,0.9898,0.9917,0.9921,0.9936,0.9939,0.9954,0.9942,0.9952,0.9954,0.9957,0.9959,0.9889,0.9956,0.9956,0.9956,0.9956,0.9956,0,0.9896,0.9896,0.9909,0.9919,0.993,0.9915,0.9922,0.9932,0.9949,0.9954,0.9965,0.9983,0.9997,0.9995,1.0008,1.002,1.0014,1.0024,1.0023,1.0023,0.997,0.9962,1.0028,1.0028,1.0028,1.0028,1.0028,1.0028,0.9935,0.9961,0.9956,0.9984,0.9984,1.0002,1.0006,1.0012,1.0015,1.0036,1.0047,1.0046,1.0047,1.0059,1.0071,1.007,1.0076,1.0088,1.0084,1.0034,1.0027,1.002,1.0013,1.0089,1.0089,1.0136,1.0137,1.0137]}]]